Perry, FL

7:56 AM EDT on June 28, 2017 (GMT -0400)
Perry

Weather History for K40J - November, 2013

Change the Weather History Date:

Thursday, November 28, 2013

  Actual Average (KVLD) Record (KVLD)
Temperature  
Mean Temperature 41 °F -  
Max Temperature 54 °F 67 °F 80 °F (2001)
Min Temperature 28 °F 42 °F 30 °F (2002)
Degree Days  
Heating Degree Days 24    
Moisture  
Dew Point 30 °F    
Average Humidity 72    
Maximum Humidity 100    
Minimum Humidity 38    
Precipitation  
Precipitation 0.03 in - - ()
Sea Level Pressure  
Sea Level Pressure 30.38 in    
Wind  
Wind Speed 4 mph (NNE)    
Max Wind Speed 10 mph    
Max Gust Speed -    
Visibility 10 miles    
Events      
Averages and records for this station are not official NWS values.
T = Trace of Precipitation, MM = Missing Value Source: NWS Daily Summary

Daily Weather History Graph

Daily Weather History Graph

Search for Another Location

Airport or City:

Trip Planner

Search our weather history database for the weather conditions in past years. The results will help you decide how hot, cold, wet, or windy it might be!

Date:

Astronomy

Nov. 28, 2013 Rise Set
Actual Time 7:10 AM EST 5:34 PM EST
Civil Twilight 6:44 AM EST 6:00 PM EST
Nautical Twilight 6:15 AM EST 6:29 PM EST
Astronomical Twilight 5:46 AM EST 6:58 PM EST
Moon 2:30 AM EST 2:26 PM EST
Length of Visible Light 11h 15m
Length of Day
10h 23m
Waning Crescent, 22% of the Moon is Illuminated
Nov 28
Waning Crescent
Dec 2
New
Dec 9
First Quarter
Dec 17
Full
Dec 25
Last Quarter

Hourly Weather History & Observations

Time (EST) Temp. Windchill Dew Point Humidity Pressure Visibility Wind Dir Wind Speed Gust Speed Precip Events Conditions
12:15 AM 35.6 °F 31.7 °F 32.0 °F 87% 30.28 in 10.0 mi NNW 4.6 mph - N/A   Clear
12:35 AM 33.8 °F 30.8 °F 32.0 °F 93% 30.28 in 10.0 mi NW 3.5 mph - N/A   Clear
12:53 AM 34.0 °F - 28.9 °F 82% 30.27 in - Calm Calm - N/A   Unknown
12:55 AM 33.8 °F - 32.0 °F 93% 30.29 in 10.0 mi Calm Calm - N/A   Clear
1:15 AM 32.0 °F - 32.0 °F 100% 30.28 in 10.0 mi Calm Calm - N/A   Clear
1:35 AM 32.0 °F - 32.0 °F 100% 30.29 in 10.0 mi Calm Calm - N/A   Clear
1:53 AM 33.1 °F 30.0 °F 28.0 °F 82% 30.28 in - North 3.5 mph - N/A   Unknown
1:55 AM 32.0 °F 28.7 °F 32.0 °F 100% 30.30 in 10.0 mi North 3.5 mph - N/A   Clear
2:15 AM 32.0 °F 26.4 °F 30.2 °F 93% 30.29 in 10.0 mi North 5.8 mph - N/A   Clear
2:35 AM 32.0 °F 27.5 °F 30.2 °F 93% 30.30 in 10.0 mi North 4.6 mph - N/A   Clear
2:53 AM 33.1 °F 27.7 °F 28.0 °F 82% 30.29 in - NNW 5.8 mph - N/A   Unknown
2:55 AM 32.0 °F 27.5 °F 30.2 °F 93% 30.30 in 10.0 mi North 4.6 mph - N/A   Clear
3:15 AM 32.0 °F 27.5 °F 30.2 °F 93% 30.30 in 10.0 mi North 4.6 mph - N/A   Clear
3:35 AM 32.0 °F 25.6 °F 30.2 °F 93% 30.31 in 10.0 mi North 6.9 mph - N/A   Clear
3:53 AM 32.0 °F 26.4 °F 27.0 °F 82% 30.30 in - North 5.8 mph - N/A   Unknown
3:55 AM 32.0 °F 26.4 °F 30.2 °F 93% 30.31 in 10.0 mi North 5.8 mph - N/A   Clear
4:15 AM 32.0 °F 27.5 °F 30.2 °F 93% 30.31 in 10.0 mi North 4.6 mph - N/A   Clear
4:35 AM 32.0 °F 24.8 °F 30.2 °F 93% 30.31 in 10.0 mi North 8.1 mph - N/A   Clear
4:53 AM 32.0 °F 24.8 °F 26.1 °F 79% 30.31 in - North 8.1 mph - N/A   Unknown
4:55 AM 32.0 °F 25.6 °F 28.4 °F 87% 30.32 in 10.0 mi North 6.9 mph - N/A   Clear
5:20 AM 32.0 °F 27.5 °F 28.4 °F 87% 30.33 in 10.0 mi North 4.6 mph - N/A   Clear
5:35 AM 32.0 °F 27.5 °F 28.4 °F 87% 30.34 in 10.0 mi North 4.6 mph - N/A   Clear
5:50 AM 32.0 °F 27.5 °F 28.4 °F 87% 30.34 in 10.0 mi NNE 4.6 mph - N/A   Clear
5:53 AM 30.9 °F 26.2 °F 25.0 °F 79% 30.33 in - North 4.6 mph - N/A   Unknown
6:15 AM 30.2 °F 26.7 °F 28.4 °F 93% 30.35 in 10.0 mi NNE 3.5 mph - N/A   Clear
6:40 AM 30.2 °F 26.7 °F 28.4 °F 93% 30.36 in 10.0 mi North 3.5 mph - N/A   Clear
6:53 AM 28.9 °F 25.2 °F 24.1 °F 82% 30.36 in - NNE 3.5 mph - N/A   Unknown
6:55 AM 30.2 °F 26.7 °F 28.4 °F 93% 30.37 in 10.0 mi NNE 3.5 mph - N/A   Clear
7:15 AM 30.2 °F 26.7 °F 28.4 °F 93% 30.38 in 10.0 mi NNE 3.5 mph - N/A   Clear
7:35 AM 30.2 °F - 28.4 °F 93% 30.39 in 10.0 mi Calm Calm - N/A   Clear
7:53 AM 30.9 °F 26.2 °F 25.0 °F 79% 30.38 in - NNE 4.6 mph - N/A   Unknown
7:55 AM 30.2 °F 25.4 °F 28.4 °F 93% 30.39 in 10.0 mi NNE 4.6 mph - N/A   Clear
8:15 AM 32.0 °F - 28.4 °F 87% 30.41 in 10.0 mi Calm Calm - N/A   Clear
8:35 AM 32.0 °F 25.6 °F 28.4 °F 87% 30.42 in 10.0 mi NNE 6.9 mph - N/A   Clear
8:53 AM 35.1 °F 27.4 °F 25.0 °F 67% 30.42 in - North 10.4 mph - 0.01 in   Unknown
8:55 AM 33.8 °F 25.8 °F 28.4 °F 81% 30.42 in 10.0 mi North 10.4 mph - N/A   Clear
9:15 AM 33.8 °F 27.0 °F 28.4 °F 81% 30.43 in 10.0 mi North 8.1 mph - N/A   Clear
9:35 AM 35.6 °F 29.2 °F 28.4 °F 75% 30.43 in 10.0 mi NNE 8.1 mph - N/A   Clear
9:53 AM 39.0 °F 34.0 °F 27.0 °F 62% 30.43 in - NNE 6.9 mph - N/A   Unknown
9:55 AM 35.6 °F 29.9 °F 28.4 °F 75% 30.44 in 10.0 mi ENE 6.9 mph - N/A   Clear
10:15 AM 37.4 °F 31.4 °F 28.4 °F 70% 30.44 in 10.0 mi NE 8.1 mph - N/A   Clear
10:35 AM 41.0 °F 35.2 °F 28.4 °F 61% 30.44 in 10.0 mi NNE 9.2 mph - N/A   Clear
10:53 AM 42.1 °F 38.4 °F 26.1 °F 53% 30.43 in - Variable 5.8 mph - 0.01 in   Unknown
10:55 AM 41.0 °F 36.4 °F 28.4 °F 61% 30.44 in 10.0 mi East 6.9 mph - N/A   Clear
11:15 AM 42.8 °F 37.0 °F 28.4 °F 57% 30.43 in 10.0 mi NE 10.4 mph - N/A   Clear
11:35 AM 42.8 °F 38.0 °F 28.4 °F 57% 30.42 in 10.0 mi NE 8.1 mph - N/A   Clear
11:53 AM 46.9 °F - 28.0 °F 48% 30.41 in - Variable 3.5 mph - N/A   Unknown
11:55 AM 44.6 °F 41.4 °F 28.4 °F 53% 30.42 in 10.0 mi NE 5.8 mph - N/A   Clear
12:15 PM 46.4 °F 44.3 °F 28.4 °F 50% 30.41 in 10.0 mi NE 4.6 mph - N/A   Clear
12:35 PM 46.4 °F 43.5 °F 28.4 °F 50% 30.39 in 10.0 mi ENE 5.8 mph - N/A   Clear
12:50 PM 48.2 °F - 28.4 °F 46% 30.39 in 10.0 mi Calm Calm - N/A   Clear
12:53 PM 50.0 °F - 28.0 °F 43% 30.38 in - NNE 5.8 mph - 0.01 in   Unknown
1:15 PM 50.0 °F - 28.4 °F 43% 30.37 in 10.0 mi NE 8.1 mph - N/A   Clear
1:40 PM 50.0 °F - 28.4 °F 43% 30.36 in 10.0 mi NE 6.9 mph - N/A   Clear
1:53 PM 52.0 °F - 28.9 °F 41% 30.35 in - Calm Calm - N/A   Unknown
1:55 PM 51.8 °F - 30.2 °F 44% 30.36 in 10.0 mi East 4.6 mph - N/A   Clear
2:15 PM 51.8 °F - 28.4 °F 41% 30.36 in 10.0 mi East 5.8 mph - N/A   Clear
2:35 PM 51.8 °F - 28.4 °F 41% 30.36 in 10.0 mi NNE 4.6 mph - N/A   Clear
2:53 PM 53.1 °F - 28.0 °F 38% 30.36 in - Variable 5.8 mph - N/A   Unknown
2:55 PM 51.8 °F - 28.4 °F 41% 30.37 in 10.0 mi ESE 3.5 mph - N/A   Clear
3:15 PM 51.8 °F - 30.2 °F 44% 30.37 in 10.0 mi NNE 3.5 mph - N/A   Clear
3:35 PM 51.8 °F - 32.0 °F 47% 30.38 in 10.0 mi NNE 3.5 mph - N/A   Clear
3:53 PM 54.0 °F - 30.0 °F 40% 30.37 in - NNE 5.8 mph - N/A   Unknown
3:55 PM 51.8 °F - 32.0 °F 47% 30.38 in 10.0 mi NNE 4.6 mph - N/A   Clear
4:15 PM 51.8 °F - 32.0 °F 47% 30.39 in 10.0 mi NNE 5.8 mph - N/A   Clear
4:35 PM 50.0 °F - 32.0 °F 50% 30.39 in 10.0 mi NNE 4.6 mph - N/A   Clear
4:53 PM 51.1 °F - 30.9 °F 46% 30.38 in - NNE 4.6 mph - N/A   Unknown
4:55 PM 50.0 °F - 32.0 °F 50% 30.39 in 10.0 mi NE 3.5 mph - N/A   Clear
5:15 PM 48.2 °F - 33.8 °F 58% 30.39 in 10.0 mi Calm Calm - N/A   Clear
5:35 PM 46.4 °F - 33.8 °F 62% 30.39 in 10.0 mi Calm Calm - N/A   Clear
5:53 PM 46.0 °F - 34.0 °F 63% 30.39 in - Calm Calm - N/A   Unknown
5:55 PM 44.6 °F - 35.6 °F 71% 30.40 in 10.0 mi Calm Calm - N/A   Clear
6:15 PM 42.8 °F - 35.6 °F 76% 30.42 in 10.0 mi Calm Calm - N/A   Clear
6:35 PM 41.0 °F - 35.6 °F 81% 30.42 in 10.0 mi Calm Calm - N/A   Clear
6:53 PM 42.1 °F 40.2 °F 35.1 °F 76% 30.41 in - North 3.5 mph - N/A   Unknown
6:55 PM 41.0 °F 39.0 °F 35.6 °F 81% 30.42 in 10.0 mi North 3.5 mph - N/A   Clear
7:15 PM 42.8 °F 41.1 °F 35.6 °F 76% 30.43 in 10.0 mi North 3.5 mph - N/A   Clear
7:35 PM 42.8 °F 41.1 °F 33.8 °F 70% 30.43 in 10.0 mi North 3.5 mph - N/A   Clear
7:53 PM 42.1 °F 39.2 °F 33.1 °F 70% 30.43 in - North 4.6 mph - N/A   Unknown
7:55 PM 41.0 °F 39.0 °F 33.8 °F 76% 30.44 in 10.0 mi NNE 3.5 mph - N/A   Clear
8:15 PM 41.0 °F 39.0 °F 33.8 °F 76% 30.44 in 10.0 mi NNE 3.5 mph - N/A   Clear
8:35 PM 41.0 °F - 33.8 °F 76% 30.44 in 10.0 mi Calm Calm - N/A   Clear
8:53 PM 41.0 °F 39.0 °F 32.0 °F 70% 30.43 in - North 3.5 mph - N/A   Unknown
8:55 PM 41.0 °F 39.0 °F 33.8 °F 76% 30.44 in 10.0 mi NNE 3.5 mph - N/A   Clear
9:20 PM 37.4 °F 33.8 °F 32.0 °F 81% 30.45 in 10.0 mi North 4.6 mph - N/A   Clear
9:35 PM 37.4 °F 33.8 °F 32.0 °F 81% 30.46 in 10.0 mi North 4.6 mph - N/A   Clear
9:50 PM 39.2 °F 35.0 °F 32.0 °F 75% 30.45 in 10.0 mi NNE 5.8 mph - N/A   Clear
9:53 PM 39.0 °F 34.8 °F 30.9 °F 73% 30.44 in - NNE 5.8 mph - N/A   Unknown
10:15 PM 39.2 °F 35.9 °F 32.0 °F 75% 30.45 in 10.0 mi NNE 4.6 mph - N/A   Clear
10:35 PM 37.4 °F 34.9 °F 32.0 °F 81% 30.45 in 10.0 mi NE 3.5 mph - N/A   Clear
10:53 PM 39.0 °F 35.7 °F 30.9 °F 73% 30.44 in - North 4.6 mph - N/A   Unknown
10:55 PM 37.4 °F 34.9 °F 32.0 °F 81% 30.45 in 10.0 mi NNE 3.5 mph - N/A   Clear
11:15 PM 37.4 °F 33.8 °F 32.0 °F 81% 30.45 in 10.0 mi NNE 4.6 mph - N/A   Clear
11:35 PM 37.4 °F 33.8 °F 32.0 °F 81% 30.45 in 10.0 mi NNE 4.6 mph - N/A   Clear
11:53 PM 39.0 °F 35.7 °F 30.9 °F 73% 30.43 in - NNE 4.6 mph - N/A   Unknown
11:55 PM 37.4 °F 34.9 °F 32.0 °F 81% 30.44 in 10.0 mi NE 3.5 mph - N/A   Clear